User: anonymous   Login
Location: Melbourne
(37.8170°S, 144.9670°E)
Time: 14:03:21
(UTC+11:00)
Language:

Explorer 11/Cluster Stage 4 - Orbit

View from above orbital plane
View from above orbital plane
View from above satellite
View from above satellite

Ground track
Ground track

The orbit data is extracted from the following two-line orbital elements,

1 00107U 61013A   14295.13995035  .00007605  00000-0  10386-2 0  1658
2 00107 028.7915 309.8329 0560372 312.6510 092.3030 14.05519921674446
Epoch (UTC): 22 October 2014 03:21:31
Eccentricity: 0.0560372
inclination: 28.7915°
perigee height: 468 km
apogee height: 1281 km
right ascension of ascending node: 309.8329°
argument of perigee: 312.6510°
revolutions per day: 14.05519921
mean anomaly at epoch: 92.3030°
orbit number at epoch: 67444

The dashed part of the orbit path shows where the satellite is in the earth's shadow,  

DLR